Tracking 29892 objects as of 21-Nov-2024
HD Live streaming from Space Station
objects crossing your sky now

STARLINK-4520

Track STARLINK-4520 now!
10-day predictions
STARLINK-4520 is classified as:


NORAD ID: 53400
Int'l Code: 2022-097N
Perigee: 546.0 km
Apogee: 547.6 km
Inclination: 53.2 °
Period: 95.4 minutes
Semi major axis: 6917 km
RCS: Unknown
Launch date: August 10, 2022
Source: United States (US)
Launch site: AIR FORCE EASTERN TEST RANGE (AFETR)
Your satellite tracking list
Your tracking list is empty




NASA's NSSDC Master Catalog

Two Line Element Set (TLE):
1 53400U 22097N   24325.78673874 -.00000896  00000-0 -38180-4 0  9997
2 53400  53.2157  91.5469 0001114  95.8825 264.2294 15.08860446126971
Source of the keplerian elements: AFSPC